Weather History for Molokai, HI

Change the Weather History Date:

Wednesday, August 21, 2013

  Actual Average Record
Temperature  
Mean Temperature 74 °F -  
Max Temperature 84 °F 85 °F 89 °F (1973)
Min Temperature 64 °F 70 °F 62 °F (1989)
Cooling Degree Days 9    
Growing Degree Days 24 (Base 50)    
Moisture  
Dew Point 69 °F    
Average Humidity 83    
Maximum Humidity 100    
Minimum Humidity 65    
Precipitation  
Precipitation 0.00 in - - ()
Sea Level Pressure  
Sea Level Pressure 29.98 in    
Wind  
Wind Speed 3 mph (SSE)    
Max Wind Speed 9 mph    
Max Gust Speed -    
Visibility 10 miles    
Events      
Averages and records for this station are not official NWS values.
T = Trace of Precipitation, MM = Missing Value Source: NWS Daily Summary

Daily Weather History Graph

Daily Weather History Graph

Search for Another Location

Airport:

Trip Planner

Search our weather history database for the weather conditions in past years. The results will help you decide how hot, cold, wet, or windy it might be!

Date:

Astronomy

Aug. 21, 2013 Rise Set
Actual Time 6:09 AM HST 6:53 PM HST
Civil Twilight 5:46 AM HST 7:16 PM HST
Nautical Twilight 5:19 AM HST 7:43 PM HST
Astronomical Twilight 4:52 AM HST 8:10 PM HST
Moon 7:27 PM HST (8/21) 6:48 AM HST (8/21)
Length of Visible Light 13h 30m
Length of Day
12h 44m
Full, 99% of the Moon is Illuminated
Aug 21
Full
Aug 27
Last Quarter
Sep 5
New
Sep 12
First Quarter
Sep 19
Full

Hourly Weather History & Observations

Time (HST) Temp. Heat Index Dew Point Humidity Pressure Visibility Wind Dir Wind Speed Gust Speed Precip Events Conditions
12:54 AM 69.1 °F - 68.0 °F 96% 30.00 in 10.0 mi NNW 6.9 mph - N/A   Clear
1:54 AM 68.0 °F - 66.9 °F 96% 29.99 in 10.0 mi Calm Calm - N/A   Clear
2:54 AM 68.0 °F - 66.9 °F 96% 29.97 in 10.0 mi Calm Calm - N/A   Clear
3:54 AM 64.9 °F - 64.9 °F 100% 29.97 in 10.0 mi Calm Calm - N/A   Clear
4:54 AM 64.9 °F - 64.9 °F 100% 29.97 in 10.0 mi Calm Calm - N/A   Clear
5:54 AM 64.9 °F - 64.9 °F 100% 29.98 in 10.0 mi Calm Calm - N/A   Clear
6:54 AM 68.0 °F - 66.9 °F 96% 29.99 in 10.0 mi Calm Calm - N/A   Clear
7:54 AM 75.9 °F - 69.1 °F 79% 30.00 in 10.0 mi NNW 4.6 mph - N/A   Clear
8:54 AM 80.1 °F 82.9 °F 69.1 °F 69% 30.01 in 10.0 mi NW 5.8 mph - N/A   Clear
9:54 AM 80.1 °F 82.9 °F 69.1 °F 69% 30.01 in 10.0 mi South 6.9 mph - N/A   Scattered Clouds
10:54 AM 81.0 °F 83.8 °F 68.0 °F 65% 30.00 in 10.0 mi Calm Calm - N/A   Mostly Cloudy
11:54 AM 84.0 °F 89.0 °F 71.1 °F 65% 29.99 in 10.0 mi Variable 5.8 mph - N/A   Mostly Cloudy
12:54 PM 82.0 °F 85.9 °F 70.0 °F 67% 29.98 in 10.0 mi Calm Calm - N/A   Overcast
1:54 PM 81.0 °F 84.4 °F 70.0 °F 69% 29.96 in 10.0 mi NNE 4.6 mph - N/A   Scattered Clouds
2:54 PM 80.1 °F 83.6 °F 71.1 °F 74% 29.95 in 10.0 mi Calm Calm - N/A   Scattered Clouds
3:54 PM 81.0 °F 85.2 °F 72.0 °F 74% 29.94 in 10.0 mi South 9.2 mph - N/A   Mostly Cloudy
4:54 PM 80.1 °F 83.6 °F 71.1 °F 74% 29.94 in 10.0 mi South 8.1 mph - N/A   Partly Cloudy
5:54 PM 78.1 °F - 71.1 °F 79% 29.95 in 10.0 mi SSE 6.9 mph - N/A   Scattered Clouds
6:02 PM 78.8 °F - 71.6 °F 78% 29.95 in 10.0 mi South 6.9 mph - N/A   Mostly Cloudy
6:14 PM 78.8 °F - 71.6 °F 78% 29.95 in 10.0 mi SSE 5.8 mph - N/A   Scattered Clouds
6:54 PM 77.0 °F - 71.1 °F 82% 29.96 in 10.0 mi South 4.6 mph - N/A   Scattered Clouds
7:13 PM 75.2 °F - 71.6 °F 89% 29.96 in 10.0 mi Calm Calm - N/A   Mostly Cloudy
7:40 PM 75.2 °F - 71.6 °F 89% 29.97 in 10.0 mi Calm Calm - N/A   Partly Cloudy
7:54 PM 73.9 °F - 72.0 °F 93% 29.98 in 10.0 mi NNE 3.5 mph - N/A   Clear
8:54 PM 73.0 °F - 71.1 °F 93% 29.99 in 10.0 mi NE 3.5 mph - N/A   Clear
9:54 PM 70.0 °F - 70.0 °F 100% 30.01 in 10.0 mi Calm Calm - N/A   Clear
10:54 PM - - - N/A% 30.00 in 10.0 mi Calm Calm - N/A   Clear
11:54 PM - - - N/A% 29.99 in 10.0 mi Calm Calm - N/A   Clear